Regional Weather Roundup
Issued by NWS

Home | Current Version | Previous Version | Text Only | Print | Product List | Glossary Off
Versions: 1 2 3 4 5 6 7 8 9 10 11 12 13 14 15 16 17 18 19 20 21 22 23 24 25 26 27 28 29 30 31 32 33 34 35 36 37 38 39 40 41 42 43 44 45 46 47 48 49 50

166
ASUS43 KFSD 240902
RWRSD

WEATHER ROUNDUP FOR SOUTH DAKOTA
NATIONAL WEATHER SERVICE SIOUX FALLS SD
400 AM CDT TUE MAY 24 2016

NOTE: "FAIR" INDICATES FEW OR NO CLOUDS BELOW 12,000 FEET WITH NO
SIGNIFICANT WEATHER AND/OR OBSTRUCTIONS TO VISIBILITY.


SDZ001>005-009-010-012>017-241000-
NORTHWEST AND NORTH CENTRAL SOUTH DAKOTA

CITY           SKY/WX    TMP DP  RH WIND       PRES   REMARKS
BUFFALO          N/A     48  35  60 W7        29.80R
FAITH            N/A     46  39  76 NW6       29.81S
MOBRIDGE       CLEAR     53  45  74 CALM      29.76R
$$

SDZ012>016-024>037-041>051-057-063-072>074-241000-
SOUTHWEST AND SOUTH CENTRAL SOUTH DAKOTA

CITY           SKY/WX    TMP DP  RH WIND       PRES   REMARKS
RAPID CTY ARPT CLEAR     49  35  58 NW14      29.84S
PIERRE         CLEAR     56  41  57 W7        29.75R
CUSTER         CLEAR     42  25  50 NW7       29.91S
PHILIP         CLEAR     47  40  76 NW6       29.79R
PINE RIDGE     CLEAR     40  34  79 CALM      29.85R
WINNER         FAIR      59  41  51 CALM      29.77S
$$

SDZ004>011-016>023-039-040-241000-
NORTHEAST SOUTH DAKOTA

CITY           SKY/WX    TMP DP  RH WIND       PRES   REMARKS
ABERDEEN       MOCLDY    61  47  59 N3        29.79R
WATERTOWN      PTCLDY    57  55  93 SE3       29.77S
BROOKINGS      FOG       59  58  96 SE8       29.77F VSB 1/4
SISSETON         N/A     64  56  75 W13       29.74R
$$

SDZ017-020-022-023-036>040-048>070-241000-
SOUTHEAST SOUTH DAKOTA

CITY           SKY/WX    TMP DP  RH WIND       PRES   REMARKS
SIOUX FALLS    CLEAR     62  60  93 S8        29.80R
HURON          CLEAR     57  56  96 CALM      29.75R
MITCHELL       FOG       57  56  96 CALM      29.76R VSB<1/4
YANKTON        CLEAR     61  55  82 SE8       29.79R
$$

ABBREVIATIONS USED IN REMARKS
   TC - TEMPERATURE IN CELSIUS
  WCI - WIND CHILL INDEX
   HX - HEAT INDEX
  VSB - VISIBILITY





USA.gov is the U.S. government's official web portal to all federal, state and local government web resources and services.